Location: Eisingen in Unterfranken
(49.7591°N, 9.8347°E)
Time: 12:54:32
(UTC+01:00)

N. Korean satellite - Pass Details

Date: 03 December 2022
Orbit: 407 x 441 km, 97.3° (Epoch: 05 February)

Event Time Altitude Azimuth Distance (km) Brightness Sun altitude
Rises 17:07:30 0° 182° (S) 2,449 10.6 -7.2°
Reaches altitude 10° 17:09:35 10° 190° (S) 1,593 9.7 -7.5°
Maximum altitude 17:12:50 40° 262° (W) 694 8.0 -8.0°
Drops below altitude 10° 17:16:10 10° 333° (NNW) 1,633 9.3 -8.5°
Sets 17:18:20 0° 341° (NNW) 2,522 10.1 -8.8°
